Regional Weather Roundup
Issued by NWS

Home | Current Version | Previous Version | Graphics & Text | Print | Product List | Glossary On
Versions: 1 2 3 4 5 6 7 8 9 10 11 12 13 14 15 16 17 18 19 20 21 22 23 24 25 26 27 28 29 30 31 32 33 34 35 36 37 38 39 40 41 42 43 44 45 46 47 48 49 50
000
ASUS45 KTFX 022219
RWRMT
MONTANA HOURLY WEATHER ROUNDUP
NATIONAL WEATHER SERVICE GREAT FALLS MT
319 PM MST MON MAR 2 2015

NOTE: "FAIR" INDICATES FEW OR NO CLOUDS BELOW 12000 FEET WITH NO
SIGNIFICANT WEATHER AND/OR OBSTRUCTIONS TO VISIBILITY.

* THESE STATIONS ARE NOT UNDER NWS QUALITY CONTROL. THEY DO NOT
   REPORT WEATHER SUCH AS PRECIPITATION OR FOG.

MTZ001>007-043-022300-
WEST OF THE DIVIDE
CITY           SKY/WX    TMP DP  RH WIND       PRES   REMARKS
KALISPELL      CLOUDY    32  12  43 NE22G32   29.90S WCI  19
MISSOULA       CLOUDY    36  23  59 N8        29.83S WCI  30
BUTTE          CLOUDY    30  12  47 W14       29.70F WCI  19
MULLAN PASS    SNOW      21  19  92 CALM      29.71F VSB M1/4
* ANACONDA     CLOUDY    30  19  64 N18G24     N/A   WCI  18
* ESSEX        N/A       26   7  44 E4G14      N/A
* EUREKA APT   CLOUDY    32  10  40 NE24G33   29.94F WCI  19
* HAMILTON APT CLOUDY    37  12  36 N9        29.75F WCI  30
* LIBBY APT    CLOUDY    30  27  89 CALM      29.91S VSB 1/2
* LINCOLN      N/A       28  20  72 NE13G22    N/A   WCI  17
* LOOKOUT PASS N/A       27  24  88 N2         N/A
* POLSON       N/A       28  25  89 N3         N/A
* RONAN APT    CLOUDY    28  25  89 NW5        N/A   WCI  22
* SEELEY LAKE  N/A       29  19  66 N4         N/A
* THOMP F APT  CLOUDY    40   5  23 S3G10      N/A
$$

MTZ008-052>055-022300-
SOUTHWEST MONTANA
CITY           SKY/WX    TMP DP  RH WIND       PRES   REMARKS
BOZEMAN        SUNNY     43   7  22 NW9       29.72F
DILLON         SUNNY     41   1  18 VRB6      29.65F
* W YELLOWSTON PTSUNNY   36   8  31 N3G9       N/A
* THREE FORKS  PTCLDY    43  10  26 N11G16     N/A
* BOULDER HILL N/A       23  15  71 N19G24     N/A   WCI   9
* MONIDA PASS  N/A       33   0  24 N6G14      N/A   WCI  27
* RAYNOLDS PAS N/A       41   9  27 E4         N/A
* WHITEHALL    N/A       45   6  20 NE9G20     N/A
* WISE RIVER   N/A       38   4  24 W5G15      N/A   WCI  34
$$

MTZ009>010-012-014-046-048-049-054-022300-
EAST SLOPES AND CENTRAL MONTANA
CITY           SKY/WX    TMP DP  RH WIND       PRES   REMARKS
CUT BANK       CLOUDY    19  10  68 N26G32    30.00R WCI   1
GREAT FALLS    LGT SNOW  25  21  85 N28G33    29.93R VSB 2    WCI   9
HELENA         LGT SNOW  30  21  69 N16       29.85R VSB 1 3/4 WCI  19
MALMSTROM AFB  LGT SNOW  27  23  85 N29G35    29.93R WCI  11
* CONRAD       PTSUNNY   25  19  78 NW26G31    N/A   WCI   9
* DEARBORN     N/A       27  23  85 VRB12G17    N/A   WCI  16
* EAST GLACIER N/A       14   9  80 NE24G29    N/A   WCI  -5
* MONARCH      N/A       20  16  84 N10G21     N/A   WCI   9
* PENDROY      N/A       18  16  92 NE26G34    N/A
* ROGERS PASS  N/A       19  17  92 S6G12      N/A   WCI  11
* SWEET GRASS  N/A       18  12  77 N26G33     N/A
* WHITE SULPH  N/A       30  17  58 NW14G23    N/A   WCI  19
$$

MTZ011-013-016-021-035-040-045-047-050-051-022300-
NORTH CENTRAL MONTANA
CITY           SKY/WX    TMP DP  RH WIND       PRES   REMARKS
HAVRE          LGT SNOW  25  18  75 N21G28    29.97R VSB 1 1/4 WCI  10
LEWISTOWN      LGT SNOW  27  21  78 NW8G18    29.85R VSB 1 3/4 WCI  19
* N BAR RANCH  CLOUDY    27  19  72 NW15G24   29.82R WCI  15
* CHINOOK      PTSUNNY   28  12  51 N16G23    29.96R WCI  16
* FORT BENTON  PTSUNNY   27  18  69 NW17G25   29.98R WCI  14
* CHESTER      N/A       22  11  62 NE18G28    N/A   WCI   8
* DENTON       N/A       26  22  85 NW22       N/A   WCI  11
* GEYSER       N/A       25  19  78 N14G20     N/A   WCI  13
* JUDITH GAP   N/A       24  23  96 N27G35     N/A   WCI   7
* LOMA         N/A       29  16  58 NW26G32    N/A   WCI  14
$$

MTZ017>020-022>027-061-062-022300-
NORTHEAST MONTANA
CITY           SKY/WX    TMP DP  RH WIND       PRES   REMARKS
GLASGOW        CLOUDY    32  19  59 NW28G35   29.81R WCI  18
GLENDIVE       PTCLDY    45  14  28 NW17      29.75R
JORDAN         PTCLDY    37  19  48 NW18G29   29.82R WCI  27
SIDNEY         SUNNY     43  16  34 W21       29.74F
WOLF POINT     CLOUDY    39  19  45 NW24G33   29.76S WCI  28
* BEAVER HILL  N/A       41  13  32 W12G20     N/A
* CIRCLE       N/A       38  22  53 NW17G22    N/A   WCI  29
* LINDSAY DVD  N/A       40  14  35 W21G27     N/A   WCI  30
* NAVAJO       N/A       27  19  72 NW26G33    N/A   WCI  12
* PLENTYWOOD A PTCLDY    28  21  75 NW25G31   29.73R WCI  13
* POPLAR APT   CLOUDY    37  18  46 NW23G30   29.75S WCI  26
* SACO         N/A       31  17  56 NW25G30    N/A   WCI  17
* SCOBEY APT   PTSUNNY   27  16  63 NW20G25    N/A   WCI  13
$$

MTZ028>042-056>058-022300-
SOUTHCENTRAL AND SOUTHEAST MONTANA
CITY           SKY/WX    TMP DP  RH WIND       PRES   REMARKS
BAKER          PTCLDY    43  16  34 NW13      29.74R
BILLINGS       PTSUNNY   46   5  18 CALM      29.71F
LIVINGSTON     PTCLDY    43  10  26 NW8       29.69F
MILES CITY     PTSUNNY   45  16  31 NW20G26   29.75R
* BIG TIMBER A PTCLDY    36  18  48 N16G24    29.73S WCI  26
* FORSYTH APT  PTSUNNY   43  16  34 NW17G26   29.77S
* LAUREL APT   PTCLDY    46   9  22 N/A        N/A
* ROUNDUP APT  PTCLDY    37  16  42 NW22G31    N/A   WCI  26
* ALZADA       N/A       43  13  29 W4         N/A
* HYSHAM       N/A       41  11  29 VRB8       N/A
* LAME DEER    N/A       36  11  35 N13        N/A   WCI  27
* REED POINT   N/A       46  14  27 VRB8G13    N/A
$$

REGIONAL REPORTS...DAKOTAS
CITY           SKY/WX    TMP DP  RH WIND       PRES   REMARKS
WILLISTON      PTCLDY    39  19  45 W16       29.72S WCI  30
DICKINSON      PTCLDY    43  12  28 W15       29.69F
BEACH          SUNNY     39  12  33 W14       29.72F WCI  31
CROSBY         SUNNY     32  18  56 W13       29.73R WCI  22
TIOGA          SUNNY     32  19  59 W6        29.73R WCI  26
WATFORD CITY   SUNNY     37  18  46 W12G20    29.69F WCI  29
BISMARCK       PTCLDY    41  21  45 S16       29.79F
GRAND FORKS    PTCLDY    30  18  61 S22G31    29.97F WCI  17
FARGO          PTSUNNY   32  16  52 S25G39    30.01F WCI  19
BUFFALO SD     CLOUDY    45  18  34 SW7       29.67F
RAPID CITY     PTSUNNY   46  25  44 S13       29.71F
$$

REGIONAL REPORTS...WYOMING/IDAHO/WASHINGTON
CITY           SKY/WX    TMP DP  RH WIND       PRES   REMARKS
GILLETTE       PTSUNNY   43  10  26 N8        29.70F
SHERIDAN       PTSUNNY   41  10  28 SW5       29.72F
CODY           PTSUNNY   37  19  48 N3        29.68S
YELLOWSTONE LA PTSUNNY   28   3  34 E5        29.65F WCI  22
SALMON         PTSUNNY   45  10  24 NW5       29.67F
MULLAN PASS    SNOW      21  19  92 CALM      29.71S VSB M1/4
SAND POINT     CLOUDY    37  27  67 N9        29.88F WCI  30
SPOKANE        PTSUNNY   39  23  53 VRB5      29.86F WCI  35
$$

REGIONAL REPORTS...ALBERTA
CITY           SKY/WX    TMP DP  RH WIND       PRES   REMARKS
CALGARY        DRIZZLE   19   5  54 N31G40    30.08R
LETHBRIDGE     LGT SNOW  25  14  63 N17G23    30.06R WCI  12
MEDICINE HAT   PTSUNNY   25  12  58 NW24G30   30.04R WCI  10
EDMONTON       SNOW      16   0  49 NW20G26   30.18S WCI  -1
WATERTON GATE  N/A       18  14  84 NE9        N/A   WCI   7
CARDSTON       N/A       19  18  96 N9         N/A   WCI   8
MILK RIVER     N/A       21  14  74 N20G25     N/A   WCI   6
$$

REGIONAL REPORTS...SASKATCHEWAN
CITY           SKY/WX    TMP DP  RH WIND       PRES   REMARKS
SWIFT CURRENT  LGT SNOW  16  12  84 N31G37    29.88R VSB 1 1/2 WCI  -4
REGINA         LGT SNOW  18  14  84 NW28G36   29.76R WCI  -1
VAL MARIE      N/A       23  14  68 N29G38     N/A   WCI   6
ASSINIBOIA     N/A       18  12  77 N28G36     N/A   WCI  -1
CORONACH       N/A       23  18  81 NW26G36    N/A   WCI   6

$$




USA.gov is the U.S. government's official web portal to all federal, state and local government web resources and services.